UZB427 LSZS-LMML

Flight info

Callsign UZB427
Flight time N/A
Altitude 37000
Route PELAD Z50 RESIA DCT NEVNI DCT LURUT DCT AMTEL DCT OST DCT UNIXO DCT DORAS DCT LEBNU DCT DILIN DCT GZO
Aircraft A320/M-SDE3FGHIRWY/LB1

Departure

Time 2026-05-06 15:07
Airport Engadin Airport (LSZS)

Arrival

Time N/A
Airport Malta International Airport (LMML)
Time Latitude Longitude Altitude Speed Heading
2026-05-06 14:34 46.53077 9.87995 5611 ft 0 kts 297°
2026-05-06 15:01 46.53078 9.87993 5608 ft 2 kts 297°
2026-05-06 15:02 46.53077 9.87959 5613 ft 4 kts 240°
2026-05-06 15:02 46.53055 9.87932 5609 ft 2 kts 188°
2026-05-06 15:02 46.53034 9.87940 5610 ft 4 kts 168°
2026-05-06 15:02 46.52986 9.87985 5607 ft 13 kts 126°
2026-05-06 15:03 46.52945 9.88126 5604 ft 16 kts 78°
2026-05-06 15:03 46.53030 9.88219 5606 ft 16 kts 28°
2026-05-06 15:03 46.53127 9.88295 5610 ft 17 kts 28°
2026-05-06 15:03 46.53232 9.88381 5612 ft 17 kts 30°
2026-05-06 15:04 46.53338 9.88468 5614 ft 19 kts 30°
2026-05-06 15:04 46.53461 9.88568 5611 ft 21 kts 29°
2026-05-06 15:04 46.53599 9.88681 5611 ft 25 kts 30°
2026-05-06 15:04 46.53756 9.88808 5612 ft 27 kts 29°
2026-05-06 15:05 46.53920 9.88941 5613 ft 27 kts 29°
2026-05-06 15:05 46.54064 9.89056 5613 ft 18 kts 19°
2026-05-06 15:05 46.54135 9.89001 5618 ft 7 kts 290°
2026-05-06 15:05 46.54132 9.88964 5617 ft 1 kts 205°
2026-05-06 15:06 46.54131 9.88963 5617 ft 0 kts 207°
2026-05-06 15:06 46.54106 9.88944 5613 ft 18 kts 207°
2026-05-06 15:06 46.53716 9.88634 5613 ft 108 kts 209°
2026-05-06 15:07 46.52847 9.87937 5717 ft 166 kts 208°
2026-05-06 15:07 46.51897 9.87009 6711 ft 163 kts 216°
2026-05-06 15:07 46.51019 9.85990 7193 ft 167 kts 218°
2026-05-06 15:07 46.50085 9.84863 7322 ft 182 kts 219°
2026-05-06 15:08 46.49046 9.83606 7506 ft 206 kts 219°
2026-05-06 15:08 46.47894 9.82223 7847 ft 223 kts 219°
2026-05-06 15:08 46.46686 9.80781 8657 ft 225 kts 217°
2026-05-06 15:08 46.45467 9.79333 9464 ft 228 kts 218°
2026-05-06 15:09 46.44225 9.77865 10234 ft 230 kts 217°
2026-05-06 15:09 46.42993 9.76410 11063 ft 228 kts 218°
2026-05-06 15:09 46.41755 9.74953 11823 ft 231 kts 218°
2026-05-06 15:09 46.40524 9.73509 12626 ft 228 kts 217°
2026-05-06 15:10 46.39295 9.72067 13398 ft 229 kts 219°
2026-05-06 15:10 46.38305 9.70242 14100 ft 237 kts 244°
2026-05-06 15:10 46.38067 9.67837 14715 ft 252 kts 272°
2026-05-06 15:10 46.38747 9.65438 15358 ft 269 kts 305°
2026-05-06 15:11 46.40184 9.63611 15946 ft 279 kts 319°
2026-05-06 15:11 46.41757 9.61932 16613 ft 282 kts 319°
2026-05-06 15:11 46.43360 9.60253 17251 ft 286 kts 322°
2026-05-06 15:11 46.45173 9.59054 17898 ft 297 kts 345°
2026-05-06 15:12 46.47256 9.58945 18485 ft 306 kts 10°
2026-05-06 15:12 46.49241 9.60063 19027 ft 310 kts 36°
2026-05-06 15:12 46.50945 9.61996 19539 ft 313 kts 41°
2026-05-06 15:12 46.52646 9.64013 20083 ft 317 kts 40°
2026-05-06 15:13 46.54367 9.66057 20639 ft 322 kts 40°
2026-05-06 15:13 46.56085 9.68181 21161 ft 326 kts 49°
2026-05-06 15:13 46.57369 9.70864 21625 ft 323 kts 71°
2026-05-06 15:13 46.57970 9.73965 22061 ft 318 kts 91°
2026-05-06 15:14 46.57862 9.77125 22198 ft 319 kts 111°
2026-05-06 15:14 46.57046 9.80125 22343 ft 323 kts 127°
2026-05-06 15:14 46.55917 9.83043 22483 ft 340 kts 127°
2026-05-06 15:14 46.54733 9.86116 22631 ft 356 kts 127°
2026-05-06 15:15 46.53500 9.89328 22766 ft 372 kts 127°
2026-05-06 15:15 46.52226 9.92666 22901 ft 384 kts 126°
2026-05-06 15:15 46.50910 9.96130 23046 ft 399 kts 126°
2026-05-06 15:15 46.49469 9.99630 23180 ft 406 kts 133°
2026-05-06 15:16 46.47590 10.02664 23493 ft 402 kts 146°
2026-05-06 15:16 46.45344 10.05022 23864 ft 396 kts 158°
2026-05-06 15:16 46.42894 10.06619 24278 ft 389 kts 168°
2026-05-06 15:16 46.40314 10.07819 24711 ft 391 kts 168°
2026-05-06 15:17 46.37718 10.09019 25137 ft 392 kts 169°
2026-05-06 15:17 46.35111 10.10221 25560 ft 394 kts 169°
2026-05-06 15:17 46.32496 10.11427 25994 ft 395 kts 170°
2026-05-06 15:17 46.29873 10.12638 26387 ft 397 kts 169°
2026-05-06 15:18 46.27236 10.13853 26786 ft 399 kts 169°
2026-05-06 15:18 46.24584 10.15071 27233 ft 400 kts 170°
2026-05-06 15:18 46.21959 10.16285 27659 ft 403 kts 169°
2026-05-06 15:18 46.19296 10.17549 28023 ft 403 kts 169°
2026-05-06 15:19 46.16627 10.18843 28367 ft 406 kts 169°
2026-05-06 15:19 46.13950 10.20153 28692 ft 408 kts 169°
2026-05-06 15:19 46.11259 10.21469 29035 ft 409 kts 169°
2026-05-06 15:19 46.08563 10.22782 29346 ft 409 kts 169°
2026-05-06 15:20 46.05854 10.24093 29665 ft 411 kts 170°
2026-05-06 15:20 46.03138 10.25401 29975 ft 413 kts 170°
2026-05-06 15:20 46.00409 10.26709 30226 ft 414 kts 170°
2026-05-06 15:20 45.97714 10.27996 30550 ft 413 kts 170°
2026-05-06 15:21 45.94990 10.29300 30902 ft 412 kts 170°
2026-05-06 15:21 45.92273 10.30600 31237 ft 411 kts 170°
2026-05-06 15:21 45.89559 10.31896 31455 ft 411 kts 170°
2026-05-06 15:21 45.86844 10.33189 31622 ft 412 kts 170°
2026-05-06 15:22 45.84124 10.34488 31841 ft 412 kts 170°
2026-05-06 15:22 45.81406 10.35788 32202 ft 411 kts 170°
2026-05-06 15:22 45.78697 10.37084 32559 ft 409 kts 170°
2026-05-06 15:22 45.76002 10.38370 32837 ft 409 kts 170°
2026-05-06 15:23 45.73296 10.39654 32898 ft 408 kts 170°
2026-05-06 15:23 45.67912 10.42200 32870 ft 408 kts 170°
2026-05-06 15:24 45.62560 10.44736 32881 ft 408 kts 170°
2026-05-06 15:24 45.57169 10.47290 32933 ft 409 kts 170°
2026-05-06 15:24 45.54475 10.48560 33236 ft 408 kts 170°
2026-05-06 15:25 45.51780 10.49831 33561 ft 407 kts 170°
2026-05-06 15:25 45.49094 10.51092 33882 ft 406 kts 170°
2026-05-06 15:25 45.46410 10.52356 34122 ft 406 kts 170°
2026-05-06 15:25 45.43729 10.53620 34307 ft 407 kts 170°
2026-05-06 15:26 45.41018 10.54661 34507 ft 403 kts 174°
2026-05-06 15:26 45.38317 10.55526 34712 ft 403 kts 175°
2026-05-06 15:26 45.35576 10.56385 34922 ft 404 kts 175°
2026-05-06 15:26 45.32831 10.57237 35132 ft 404 kts 175°
2026-05-06 15:27 45.30077 10.58085 35329 ft 405 kts 175°
2026-05-06 15:27 45.27325 10.58925 35480 ft 406 kts 175°
2026-05-06 15:27 45.24549 10.59758 35620 ft 408 kts 175°
2026-05-06 15:27 45.21763 10.60586 35769 ft 410 kts 175°
2026-05-06 15:28 45.18971 10.61410 35955 ft 410 kts 175°
2026-05-06 15:28 45.16176 10.62228 36149 ft 411 kts 175°
2026-05-06 15:28 45.13378 10.63044 36335 ft 411 kts 175°
2026-05-06 15:28 45.10611 10.63846 36514 ft 411 kts 175°
2026-05-06 15:29 45.07806 10.64654 36686 ft 412 kts 175°
2026-05-06 15:29 45.05000 10.65455 36847 ft 413 kts 175°
2026-05-06 15:29 45.02177 10.66252 36890 ft 415 kts 175°
2026-05-06 15:30 44.96512 10.67845 36887 ft 415 kts 175°
2026-05-06 15:30 44.90848 10.69441 36892 ft 415 kts 175°